User: anonymous   Login
Location: Unspecified
(0.0000°N, 0.0000°E)
Time: 23:49:28
(UTC+00:00)
Language:

ESTCUBE 1 - Orbit

View from above orbital plane
View from above orbital plane
View from above satellite
View from above satellite

Ground track
Ground track

The orbit data is extracted from the following two-line orbital elements,

1 39161U 13021C   17349.76911235  .00000179  00000-0  36410-4 0  9990
2 39161  98.0199  73.3395 0008119 286.7508  73.2804 14.71995522247465
Epoch (UTC): 15 December 2017 18:27:31
Eccentricity: 0.0008119
inclination: 98.0199°
perigee height: 649 km
apogee height: 660 km
right ascension of ascending node: 73.3395°
argument of perigee: 286.7508°
revolutions per day: 14.71995522
mean anomaly at epoch: 73.2804°
orbit number at epoch: 24746

The dashed part of the orbit path shows where the satellite is in the earth's shadow,  

DLR